Погода в Кармацкой

Россия / Тюменская область     56°44′22″N   68°38′33″E
темп.,
°C
ветер,
м/с
пор.,
м/с
влажн.,
%
обл.,
%
осадки,
мм/ч
давл.,
гПа
погр.,
м
25 февраля, чт
чт2523:00−20св71396100 0.8 1012732
02:00−20ссв71295100 0.4 1012766
05:00−23с61196100 0.7 1014621
08:00−26с61194100 0.1 1016406
11:00−25с6993100 0.1 1019390
14:00−23ссз589495 0.0 1020393
17:00−23сз589598 0.0 1023421
20:00−25сз4997100 0.1 1024370
26 февраля, пт
пт2623:00−29сз339991 0.1 102628
02:00−31зсз239972 0.0 102721
05:00−32зсз239947 0.0 102919
08:00−32з22995 0.0 103019
11:00−25зюз239230 0.0 1030233
14:00−22юз238895 0.0 1030409
17:00−23ююз239598 0.0 103038
20:00−26ююз349792 0.0 103036
27 февраля, сб
сб2723:00−28ююз349857 0.0 103130
02:00−29ююз349920 0.0 103035
05:00−30ю349610 0.0 103043
08:00−31ю36950 0.0 103082
11:00−25ю469520 0.0 1030250
14:00−21ююв479380 0.0 1028337
17:00−22юв499369 0.0 1027320
20:00−25юв511940 0.0 1026246
28 февраля, вс
вс2823:00−26юв5109242 0.0 1024240
02:00−23юв61198100 0.3 1021271
05:00−21вюв61097100 0.8 1019330
08:00−19вюв61196100 0.4 1016382
11:00−15вюв61193100 0.9 1015443
14:00−12вюв6992100 0.3 1014546
17:00−11вюв51091100 0.5 1012540
20:00−12в51094100 0.1 1011376
1 марта, пн
пн123:00−13всв4895100 0.7 1011323
02:00−14св4795100 0.4 1010259
05:00−15св369699 0.8 1011156
08:00−17ссв349793 0.1 1012102
11:00−14с239295 0.1 1012294
14:00−11ссз3389100 0.1 1012398
17:00−12ссз2294100 0.1 101358
20:00−16сз1298100 0.0 101320